{"data":{"norad_id":63919,"intl_designator":"2025-096B","name":"YAOGAN-40 02B","alt_names":[],"object_type":"PAYLOAD","status":"ACTIVE","operator":null,"country":"PRC","launch_date":"2025-05-11","launch_site_code":"TAISC","launch_vehicle":null,"mission":null,"orbit_class":"UNKNOWN","rcs_meters":null,"size_class":null,"mass_kg":null,"dimensions":null,"purposes":[],"wikipedia_slug":null,"has_3d_model":false,"image_url":null,"decayed_at":null,"tle_current":{"epoch":"2026-09-21T21:50:32.777376Z","epoch_age_seconds":79956,"freshness":"FRESH","line1":"1 63919U 25096B   26264.91010159  .00000091  00000+0  39089-4 0  9998","line2":"2 63919  85.9966 144.6242 0001764  87.6049 272.5336 14.12462178 70223","mean_motion":14.12462178,"eccentricity":0.0001764,"inclination_deg":85.9966,"raan_deg":144.6242,"arg_perigee_deg":87.6049,"mean_anomaly_deg":272.5336,"bstar":3.9089e-5,"rev_number":7022,"period_min":101.94963252319,"perigee_km":849.68319372401,"apogee_km":852.2336185833,"semimajor_km":7229.0954061537,"source":"CELESTRAK","updated_at":"2026-09-22T09:00:29.427455Z"}}}